Location: Tamazert
(32.6352°N, 5.2072°W)
Time: 02:38:00
(UTC+00:00)

Tiros 1 despin weight - Pass Details

Date: 08 October 2022
Orbit: 590 x 637 km, 48.2° (Epoch: 30 November)

Event Time Altitude Azimuth Distance (km) Brightness Sun altitude
Rises 13:01:20 0° 223° (SW) 2,803 ? 49.4°
Reaches altitude 10° 13:03:36 10° 220° (SW) 1,907 ? 49.2°
Maximum altitude 13:07:56 67° 138° (SE) 643 ? 48.8°
Drops below altitude 10° 13:12:20 10° 56° (NE) 1,935 ? 48.5°
Sets 13:14:39 0° 54° (NE) 2,847 ? 48.3°
